Kodiak, AK

6:36 PM AKST en Diciembre 12, 2018 (GMT -0900)
Kodiak

Tiempo Historia de PADQ - Abril, 2018

Change the Weather History Date:

Lunes, Abril 16, 2018

  Actual Average Record
Temperature  
Temperatura media 42 ° F 38 ° F  
Temperatura máxima 43 ° F 43 ° F 60 ° F (1965)
Temperatura mínima 41 ° F 32 ° F 12 ° F (1927)
Degree Days  
Grados día de calefacción 23 27  
Month to date heating degree days 397 464  
Since 1 July heating degree days 6588 7334  
Cooling Degree Days 0 0  
Month to date cooling degree days 0 0  
Year to date cooling degree days 0 0  
Moisture  
Punto de rocío 40 ° F    
Average Humidity 95    
Maximum Humidity 100    
Minimum Humidity 89    
Precipitación  
Precipitación 0.24 pul 0.20 pul 1.17 pul (1945)
Month to date precipitation 3.52 3.16  
Year to date precipitation 16.61 23.12  
Nieve  
Nieve 0.00 pul 0.30 pul - ()
Month to date snowfall 0.0 5.8  
Since 1 July snowfall 17.9 66.5  
Grosos de nieve 0.00 pul    
Presión al nivel del mar  
Presión al nivel del mar 29.79 pul    
Viento  
Velocidad del viento 10 mph (Este)    
Velocidad máxima del viento 14 mph    
Max Gust Speed -    
Visibilidad 3 Millas    
Eventos Niebla , Lluvia    
T = Trace of Precipitation, MM = Missing Value Source: NWS Daily Summary

Daily Weather History Graph

Daily Weather History Graph

Search for Another Location

Airport or City:

Astronomía

Apr. 16, 2018 Salida Puesta
Hora real 6:56 AM AKDT 9:24 PM AKDT
Crepúsculo civil 6:13 AM AKDT 10:07 PM AKDT
Crepúsculo náutico 5:17 AM AKDT 11:03 PM AKDT
Crepúsculo astronómico 4:06 AM AKDT 12:17 AM AKDT
Luna 7:53 AM AKDT (4/16) 10:25 PM AKDT (4/16)
Horas de luz 15h 53m
Horas de luz
14h 27m
Luna nueva, 1% of the Moon is Illuminated
Abr 16
Luna nueva
Abr 22
Cuarto creciente
Abr 29
Luna llena
May 7
Cuarto menguante
May 15
Nueva

Hourly Weather History & Observations

Hora (AKDT) Temp. Vientos helados Punto de rocío Humedad Presión Visibilidad Wind Dir Velocidad del viento Velocidad de ráfagas Precip Eventos Condiciones
12:53 AM 43.0 ° F 40.3 ° F 39.0 ° F 86% 29.89 pul 10.0 mi Variable 4.6 mph - N/A   Nublado
1:53 AM 42.1 ° F 38.4 ° F 39.0 ° F 89% 29.88 pul 10.0 mi SSE 5.8 mph - N/A   Nublado
2:07 AM 43.0 ° F 38.2 ° F 37.9 ° F 82% 29.87 pul 10.0 mi ESE 8.1 mph - N/A   Nublado
2:53 AM 42.1 ° F 35.2 ° F 39.0 ° F 89% 29.86 pul 9.0 mi Este 12.7 mph - N/A   Nublado
3:29 AM 41.0 ° F 33.9 ° F 39.0 ° F 93% 29.85 pul 6.0 mi Este 12.7 mph - N/A   Nublado
3:36 AM 41.0 ° F 33.1 ° F 39.9 ° F 96% 29.85 pul 4.0 mi Este 15.0 mph - N/A   Nublado
3:40 AM 41.0 ° F 33.5 ° F 39.0 ° F 93% 29.85 pul 2.0 mi ESE 13.8 mph - N/A   Nublado
3:45 AM 41.0 ° F 33.5 ° F 39.0 ° F 93% 29.84 pul 1.0 mi Este 13.8 mph - N/A   Nublado
3:53 AM 41.0 ° F 33.5 ° F 39.9 ° F 96% 29.84 pul 0.8 mi Este 13.8 mph - N/A   Nublado
4:03 AM 41.0 ° F 34.7 ° F 39.9 ° F 96% 29.84 pul 1.0 mi ESE 10.4 mph - N/A   Neblina
4:10 AM 41.0 ° F 35.2 ° F 39.9 ° F 96% 29.84 pul 1.5 mi Este 9.2 mph - N/A   Nublado
4:16 AM 41.0 ° F 34.3 ° F 39.9 ° F 96% 29.83 pul 2.5 mi Este 11.5 mph - N/A   Nublado
4:28 AM 41.0 ° F 35.2 ° F 39.9 ° F 96% 29.83 pul 3.0 mi Este 9.2 mph - N/A   Nublado
4:53 AM 42.1 ° F 35.7 ° F 39.9 ° F 92% 29.83 pul 5.0 mi Este 11.5 mph - N/A   Nublado
5:02 AM 42.1 ° F 35.7 ° F 39.9 ° F 92% 29.82 pul 4.0 mi Este 11.5 mph - N/A   Nublado
5:30 AM 42.1 ° F 36.1 ° F 39.9 ° F 92% 29.81 pul 5.0 mi ESE 10.4 mph - 0.00 pul Lluvia Lluvia débil
5:53 AM 42.1 ° F 35.7 ° F 39.9 ° F 92% 29.81 pul 3.0 mi Este 11.5 mph - 0.01 pul Lluvia Lluvia débil
6:07 AM 42.1 ° F 36.1 ° F 39.9 ° F 92% 29.80 pul 4.0 mi Este 10.4 mph - 0.00 pul Lluvia Lluvia débil
6:19 AM 42.1 ° F 35.7 ° F 39.9 ° F 92% 29.80 pul 4.0 mi Este 11.5 mph - 0.00 pul Lluvia Lluvia débil
6:45 AM 42.1 ° F 36.1 ° F 39.9 ° F 92% 29.79 pul 1.0 mi Este 10.4 mph - 0.02 pul Lluvia Lluvia débil
6:53 AM 42.1 ° F 35.7 ° F 39.9 ° F 92% 29.79 pul 1.0 mi Este 11.5 mph - 0.02 pul Lluvia Lluvia débil
7:09 AM 42.1 ° F 35.7 ° F 39.9 ° F 92% 29.79 pul 1.0 mi Este 11.5 mph - 0.01 pul Lluvia Lluvia débil
7:53 AM 41.0 ° F 34.3 ° F 39.9 ° F 96% 29.78 pul 1.0 mi Este 11.5 mph - 0.06 pul Lluvia Lluvia débil
8:53 AM 42.1 ° F 36.1 ° F 39.9 ° F 92% 29.78 pul 1.0 mi Este 10.4 mph - 0.05 pul Lluvia Lluvia débil
8:59 AM 42.1 ° F 35.7 ° F 39.9 ° F 92% 29.78 pul 2.0 mi Este 11.5 mph - 0.01 pul Lluvia Lluvia débil
9:18 AM 42.1 ° F 35.7 ° F 39.9 ° F 92% 29.77 pul 2.0 mi Este 11.5 mph - 0.02 pul Lluvia Lluvia débil
9:41 AM 42.1 ° F 35.7 ° F 41.0 ° F 96% 29.77 pul 3.0 mi Este 11.5 mph - 0.03 pul Lluvia Lluvia débil
9:53 AM 42.1 ° F 36.1 ° F 41.0 ° F 96% 29.78 pul 4.0 mi Este 10.4 mph - 0.03 pul Lluvia Lluvia débil
10:53 AM 42.1 ° F 36.6 ° F 41.0 ° F 96% 29.77 pul 4.0 mi Este 9.2 mph - 0.02 pul Lluvia Lluvia débil
11:53 AM 42.1 ° F 36.6 ° F 41.0 ° F 96% 29.77 pul 4.0 mi Este 9.2 mph - 0.01 pul Lluvia Lluvia débil
12:53 PM 42.1 ° F 37.1 ° F 41.0 ° F 96% 29.76 pul 1.5 mi Este 8.1 mph - 0.02 pul Lluvia Lluvia débil
1:10 PM 42.1 ° F 36.6 ° F 42.1 ° F 100% 29.76 pul 0.5 mi ENE 9.2 mph - 0.00 pul Niebla , Lluvia Lluvia débil
1:34 PM 43.0 ° F 37.7 ° F 42.1 ° F 97% 29.76 pul 0.2 mi ENE 9.2 mph - 0.01 pul Niebla , Lluvia Lluvia débil
1:53 PM 43.0 ° F 38.2 ° F 43.0 ° F 100% 29.75 pul 0.2 mi ENE 8.1 mph - 0.01 pul Niebla , Lluvia Lluvia débil
2:53 PM 43.0 ° F 38.2 ° F 42.1 ° F 97% 29.75 pul 0.2 mi Este 8.1 mph - 0.00 pul Niebla , Lluvia Lluvia débil
3:53 PM 42.1 ° F 37.1 ° F 42.1 ° F 100% 29.76 pul 1.0 mi Este 8.1 mph - 0.01 pul   Neblina
3:54 PM 43.0 ° F 38.2 ° F 42.1 ° F 97% 29.75 pul 0.8 mi ENE 8.1 mph - 0.00 pul Lluvia Lluvia débil
4:53 PM 43.0 ° F 38.2 ° F 42.1 ° F 97% 29.75 pul 0.8 mi Este 8.1 mph - 0.00 pul Lluvia Lluvia débil
5:30 PM 43.0 ° F 38.8 ° F 41.0 ° F 93% 29.75 pul 1.2 mi ENE 6.9 mph - 0.01 pul Lluvia Lluvia débil
5:36 PM 43.0 ° F 38.2 ° F 41.0 ° F 93% 29.75 pul 0.8 mi ENE 8.1 mph - 0.01 pul Lluvia Lluvia débil
5:53 PM 42.1 ° F 37.7 ° F 41.0 ° F 96% 29.75 pul 0.8 mi ENE 6.9 mph - 0.01 pul Lluvia Lluvia débil
6:53 PM 42.1 ° F 37.1 ° F 41.0 ° F 96% 29.75 pul 0.8 mi Este 8.1 mph - 0.02 pul Lluvia Lluvia débil
7:53 PM 42.1 ° F 37.1 ° F 41.0 ° F 96% 29.74 pul 1.0 mi ENE 8.1 mph - 0.00 pul Lluvia Lluvia débil
8:32 PM 42.1 ° F 37.1 ° F 41.0 ° F 96% 29.74 pul 0.5 mi Este 8.1 mph - 0.01 pul Niebla Niebla
8:40 PM 42.1 ° F 37.1 ° F 41.0 ° F 96% 29.74 pul 0.2 mi Este 8.1 mph - 0.01 pul Niebla Niebla
8:53 PM 42.1 ° F 37.1 ° F 41.0 ° F 96% 29.74 pul 0.2 mi Este 8.1 mph - 0.01 pul Niebla Niebla
9:53 PM 42.1 ° F 36.6 ° F 39.9 ° F 92% 29.75 pul 0.2 mi Este 9.2 mph - 0.00 pul Niebla , Lluvia Lluvia débil
10:00 PM 42.1 ° F 36.6 ° F 39.9 ° F 92% 29.74 pul 1.5 mi Este 9.2 mph - 0.01 pul Lluvia Lluvia débil
10:05 PM 42.1 ° F 36.6 ° F 39.9 ° F 92% 29.74 pul 2.0 mi Este 9.2 mph - 0.01 pul Lluvia Lluvia débil
10:15 PM 42.1 ° F 36.1 ° F 39.9 ° F 92% 29.74 pul 4.0 mi Este 10.4 mph - 0.01 pul Lluvia Lluvia débil
10:49 PM 42.8 ° F 37.5 ° F 39.2 ° F 87% 29.74 pul 6.0 mi Este 9.2 mph - 0.01 pul   Nublado
10:53 PM 42.1 ° F 37.1 ° F 39.9 ° F 92% 29.74 pul 6.0 mi Este 8.1 mph - 0.01 pul   Nublado
11:20 PM 42.1 ° F 37.1 ° F 39.9 ° F 92% 29.73 pul 7.0 mi Este 8.1 mph - N/A   Nublado
11:53 PM 42.1 ° F 37.1 ° F 39.9 ° F 92% 29.74 pul 4.0 mi Este 8.1 mph - N/A   Nublado